LiveATC.Net - Listen to live air traffic control over the Internet!


ICAO: ENLI  IATA: FAN   Airport: Farsund Airport, Lista
City: Farsund
Country: Norway   Continent: Europe
ENZV METAR Weather: ENZV 202220Z 29020KT 9999 FEW020 SCT042 06/02 Q0996
ENLI Flight Activity (FlightAware)
ENLI CTAF
Feed Status: DOWN
Last heard on: 2017-02-06 17:37:04 (14 days 5 hours 10 minutes ago)
ENLI CTAF Audio Archives
FacilityFrequency
Lista Traffic/Lista Radio126.450


NOTICE

Unauthorized use prohibited. See LiveATC.net Terms of Service


Find LiveATC Audio Streams


Airport/ARTCC Code

Frequency Search
(e.g., 124.400, 128.75)
Site-wide search
 


Browse LiveATC Feeds
LiveATC Coverage Map
Top 50 LiveATC Feeds
Bad Weather Areas

LiveATC FAQ
Offer a LiveATC Feed
Contact LiveATC.net
Press Inquiries

LiveATC on iPhone
LiveATC on Android

Windows Phone
Windows 8/10

LiveATC Mobile
(Mobile browser)

ATC Audio Archives
Interesting Recordings

LiveATC Forums


Home Page
About LiveATC.net
Make a Donation
LiveATC Store

Terms of Use
Privacy Policy

Canadian Air Freqs

AIRMETs/SIGMETs

FAA Airport Status
Nat'l Airspace Status
Arrival Demand Charts


Server Software By:
Icecast.org
Liquidsoap